Time,TemperatureF,DewpointF,PressureIn,WindDirection,WindDirectionDegrees,WindSpeedMPH,WindSpeedGustMPH,Humidity,HourlyPrecipIn,Conditions,Clouds,dailyrainin,SolarRadiationWatts/m^2,SoftwareType,DateUTC
2013-07-03 00:40:00,77.0,53.0,-100.00,SW,224,3.0,15.0,43,-99.99,,,0.00,0.000000,,2013-07-03 06:40:00,
2013-07-03 00:50:00,77.0,53.0,-100.00,SW,224,3.0,15.0,43,-99.99,,,0.00,0.000000,,2013-07-03 06:50:00,
2013-07-03 01:47:00,76.0,53.0,-100.00,SSW,200,4.0,13.0,45,-99.99,,,0.00,0.000000,,2013-07-03 07:47:00,
2013-07-03 01:59:00,76.0,53.0,-100.00,SSW,200,4.0,13.0,45,-99.99,,,0.00,0.000000,,2013-07-03 07:59:00,
2013-07-03 02:38:00,76.0,52.0,-100.00,WSW,251,9.0,15.0,44,-99.99,,,0.00,0.000000,,2013-07-03 08:38:00,
2013-07-03 02:46:00,76.0,52.0,-100.00,WSW,251,9.0,15.0,44,-99.99,,,0.00,0.000000,,2013-07-03 08:46:00,
2013-07-03 03:47:00,75.0,50.0,-100.00,SW,229,3.0,14.0,41,-99.99,,,0.00,0.000000,,2013-07-03 09:47:00,
2013-07-03 03:57:00,75.0,50.0,-100.00,SW,229,3.0,14.0,41,-99.99,,,0.00,0.000000,,2013-07-03 09:57:00,
2013-07-03 04:37:00,74.0,44.0,-100.00,WSW,240,7.0,13.0,34,-99.99,,,0.00,0.000000,,2013-07-03 10:37:00,
2013-07-03 05:38:00,72.0,46.0,-100.00,WSW,254,8.0,14.0,40,-99.99,,,-99.99,0.000000,,2013-07-03 11:38:00,
2013-07-03 05:44:00,72.0,46.0,-100.00,WSW,254,8.0,14.0,40,-99.99,,,-99.99,0.000000,,2013-07-03 11:44:00,
2013-07-03 06:38:00,72.0,46.0,-100.00,WSW,249,2.0,10.0,40,-99.99,,,0.00,3.000000,,2013-07-03 12:38:00,
2013-07-03 09:47:00,77.0,55.0,-100.00,SSE,155,4.0,15.0,47,-99.99,,,0.00,416.000000,,2013-07-03 15:47:00,
2013-07-03 09:56:00,77.0,55.0,-100.00,SSE,155,4.0,15.0,47,-99.99,,,0.00,416.000000,,2013-07-03 15:56:00,
2013-07-03 10:40:00,77.0,52.0,-100.00,West,263,13.0,22.0,42,-99.99,,,0.00,600.000000,,2013-07-03 16:40:00,
2013-07-03 10:46:00,77.0,52.0,-100.00,West,263,13.0,22.0,42,-99.99,,,0.00,600.000000,,2013-07-03 16:46:00,
2013-07-03 10:57:00,77.0,52.0,-100.00,West,263,13.0,22.0,42,-99.99,,,0.00,600.000000,,2013-07-03 16:57:00,
2013-07-03 11:03:00,77.0,52.0,-100.00,West,263,13.0,22.0,42,-99.99,,,0.00,600.000000,,2013-07-03 17:03:00,
2013-07-03 11:42:00,77.0,53.0,-100.00,West,272,9.0,24.0,44,0.00,,,0.00,570.000000,,2013-07-03 17:42:00,
2013-07-03 11:48:00,77.0,53.0,-100.00,West,272,9.0,24.0,44,0.00,,,0.00,570.000000,,2013-07-03 17:48:00,
2013-07-03 11:54:00,77.0,53.0,-100.00,West,272,9.0,24.0,44,0.00,,,0.00,570.000000,,2013-07-03 17:54:00,
2013-07-03 12:03:00,77.0,53.0,-100.00,West,272,9.0,24.0,44,0.00,,,0.00,570.000000,,2013-07-03 18:03:00,
2013-07-03 12:46:00,78.0,51.0,-100.00,West,277,14.0,22.0,39,0.00,,,0.00,723.000000,,2013-07-03 18:46:00,
2013-07-03 12:56:00,78.0,51.0,-100.00,West,277,14.0,22.0,39,0.00,,,0.00,723.000000,,2013-07-03 18:56:00,
2013-07-03 13:02:00,78.0,51.0,-100.00,West,277,14.0,22.0,39,0.00,,,0.00,723.000000,,2013-07-03 19:02:00,
2013-07-03 13:38:00,78.0,48.0,-100.00,West,278,11.0,20.0,35,0.00,,,0.00,756.000000,,2013-07-03 19:38:00,
2013-07-03 13:48:00,78.0,48.0,-100.00,West,278,11.0,20.0,35,0.00,,,0.00,756.000000,,2013-07-03 19:48:00,
2013-07-03 13:56:00,78.0,48.0,-100.00,West,278,11.0,20.0,35,0.00,,,0.00,756.000000,,2013-07-03 19:56:00,
2013-07-03 14:01:00,78.0,48.0,-100.00,West,278,11.0,20.0,35,0.00,,,0.00,756.000000,,2013-07-03 20:01:00,
2013-07-03 14:37:00,79.0,50.0,-100.00,West,276,15.0,22.0,37,0.00,,,-99.99,540.000000,,2013-07-03 20:37:00,
2013-07-03 14:46:00,79.0,50.0,-100.00,West,276,15.0,22.0,37,0.00,,,-99.99,540.000000,,2013-07-03 20:46:00,
2013-07-03 14:55:00,79.0,50.0,-100.00,West,276,15.0,22.0,37,0.00,,,-99.99,540.000000,,2013-07-03 20:55:00,
2013-07-03 15:37:00,81.0,50.0,-100.00,West,275,18.0,31.0,34,0.00,,,0.00,810.000000,,2013-07-03 21:37:00,
2013-07-03 15:45:00,81.0,50.0,-100.00,West,275,18.0,31.0,34,0.00,,,0.00,810.000000,,2013-07-03 21:45:00,
2013-07-03 15:54:00,81.0,50.0,-100.00,West,275,18.0,31.0,34,0.00,,,0.00,810.000000,,2013-07-03 21:54:00,
2013-07-03 16:01:00,81.0,50.0,-100.00,West,275,18.0,31.0,34,0.00,,,0.00,810.000000,,2013-07-03 22:01:00,
2013-07-03 16:38:00,82.0,47.0,-100.00,West,278,19.0,29.0,29,0.00,,,0.00,920.000000,,2013-07-03 22:38:00,
2013-07-03 16:46:00,82.0,47.0,-100.00,West,278,19.0,29.0,29,0.00,,,0.00,920.000000,,2013-07-03 22:46:00,
2013-07-03 17:02:00,82.0,47.0,-100.00,West,278,19.0,29.0,29,0.00,,,0.00,920.000000,,2013-07-03 23:02:00,
2013-07-03 17:40:00,83.0,44.0,-100.00,West,280,17.0,28.0,25,0.00,,,0.00,810.000000,,2013-07-03 23:40:00,
2013-07-03 17:45:00,83.0,44.0,-100.00,West,280,17.0,28.0,25,0.00,,,0.00,810.000000,,2013-07-03 23:45:00,
2013-07-03 17:56:00,83.0,44.0,-100.00,West,280,17.0,28.0,25,0.00,,,0.00,810.000000,,2013-07-03 23:56:00,
2013-07-03 18:02:00,83.0,44.0,-100.00,West,280,17.0,28.0,25,0.00,,,0.00,810.000000,,2013-07-04 00:02:00,
2013-07-03 18:50:00,83.0,40.0,-100.00,West,277,16.0,28.0,22,0.00,,,0.00,638.000000,,2013-07-04 00:50:00,
2013-07-03 18:56:00,83.0,40.0,-100.00,West,277,16.0,28.0,22,0.00,,,0.00,638.000000,,2013-07-04 00:56:00,
2013-07-03 19:03:00,83.0,40.0,-100.00,West,277,16.0,28.0,22,0.00,,,0.00,638.000000,,2013-07-04 01:03:00,
2013-07-03 19:39:00,82.0,37.0,-100.00,West,270,13.0,23.0,20,0.00,,,0.00,457.000000,,2013-07-04 01:39:00,
2013-07-03 19:45:00,82.0,37.0,-100.00,West,270,13.0,23.0,20,0.00,,,0.00,457.000000,,2013-07-04 01:45:00,
2013-07-03 19:54:00,82.0,37.0,-100.00,West,270,13.0,23.0,20,0.00,,,0.00,457.000000,,2013-07-04 01:54:00,
2013-07-03 20:02:00,82.0,37.0,-100.00,West,270,13.0,23.0,20,0.00,,,0.00,457.000000,,2013-07-04 02:02:00,
2013-07-03 20:49:00,80.0,39.0,-100.00,West,268,11.0,20.0,23,0.00,,,0.00,272.000000,,2013-07-04 02:49:00,
2013-07-03 20:56:00,80.0,39.0,-100.00,West,268,11.0,20.0,23,0.00,,,0.00,272.000000,,2013-07-04 02:56:00,
2013-07-03 21:02:00,80.0,39.0,-100.00,West,268,11.0,20.0,23,0.00,,,0.00,272.000000,,2013-07-04 03:02:00,
2013-07-03 21:36:00,76.0,41.0,-100.00,West,261,10.0,19.0,28,0.00,,,0.00,92.000000,,2013-07-04 03:36:00,
2013-07-03 21:46:00,76.0,41.0,-100.00,West,261,10.0,19.0,28,0.00,,,0.00,92.000000,,2013-07-04 03:46:00,
2013-07-03 22:01:00,76.0,41.0,-100.00,West,261,10.0,19.0,28,0.00,,,0.00,92.000000,,2013-07-04 04:01:00,
2013-07-03 22:33:00,74.0,41.0,-100.00,WSW,249,8.0,17.0,31,0.00,,,0.00,5.000000,,2013-07-04 04:33:00,
2013-07-03 22:43:00,74.0,41.0,-100.00,WSW,249,8.0,17.0,31,0.00,,,0.00,5.000000,,2013-07-04 04:43:00,
2013-07-03 22:52:00,74.0,41.0,-100.00,WSW,249,8.0,17.0,31,0.00,,,0.00,5.000000,,2013-07-04 04:52:00,
2013-07-03 23:33:00,73.0,43.0,-100.00,SW,229,3.0,17.0,34,-99.99,,,0.00,0.000000,,2013-07-04 05:33:00,
2013-07-03 23:43:00,73.0,43.0,-100.00,SW,229,3.0,17.0,34,-99.99,,,0.00,0.000000,,2013-07-04 05:43:00,
2013-07-03 23:52:00,73.0,43.0,-100.00,SW,229,3.0,17.0,34,-99.99,,,0.00,0.000000,,2013-07-04 05:52:00,